Location: ??????
(31.2056°N, 45.3906°E)
Time: 13:11:25
(UTC+00:00)

CZ-2C R/B - Pass Details

Date: 09 April 2020
Orbit: 785 x 870 km, 98.3° (Epoch: 04 June)

Event Time Altitude Azimuth Distance (km) Brightness Sun altitude
Rises 17:38:53 0° 4° (N) 3,281 6.1 -28.0°
Reaches altitude 10° 17:41:16 10° 358° (N) 2,353 5.4 -28.5°
Maximum altitude 17:46:11 45° 287° (WNW) 1,066 3.5 -29.4°
Enters shadow 17:50:25 14° 218° (SW) 2,097 4.8 -30.1°
